Weather History for LEPP - November, 2012

Change the Weather History Date:

Friday, November 30, 2012

  Actual Average Record
Temperature  
Mean Temperature 38 °F -  
Max Temperature 41 °F 46 °F 61 °F (2014)
Min Temperature 35 °F 35 °F 32 °F (2006)
Degree Days  
Heating Degree Days 27    
Moisture  
Dew Point 30 °F    
Average Humidity 75    
Maximum Humidity 100    
Minimum Humidity 57    
Precipitation  
Precipitation 0.00 in - - ()
Sea Level Pressure  
Sea Level Pressure 29.73 in    
Wind  
Wind Speed 9 mph ()    
Max Wind Speed 20 mph    
Max Gust Speed -    
Visibility 6.2 miles    
Events Rain    
Averages and records for this station are not official NWS values.
T = Trace of Precipitation, MM = Missing Value Source: Averaged Metar Reports

Daily Weather History Graph

Daily Weather History Graph

Search for Another Location

Airport or City:

Trip Planner

Search our weather history database for the weather conditions in past years. The results will help you decide how hot, cold, wet, or windy it might be!

Date:

Astronomy

Nov. 30, 2012 Rise Set
Actual Time 8:16 AM CET 5:33 PM CET
Civil Twilight 7:45 AM CET 6:05 PM CET
Nautical Twilight 7:09 AM CET 6:40 PM CET
Astronomical Twilight 6:35 AM CET 7:14 PM CET
Moon 7:15 PM CET (11/30) 9:37 AM CET (11/30)
Length of Visible Light 10h 20m
Length of Day
9h 17m
Full, 97% of the Moon is Illuminated
Nov 30
Full
Dec 6
Last Quarter
Dec 13
New
Dec 20
First Quarter
Dec 28
Full

Hourly Weather History & Observations

Time (CET) Temp. Windchill Dew Point Humidity Pressure Visibility Wind Dir Wind Speed Gust Speed Precip Events Conditions
12:00 AM 37.4 °F 34.9 °F 37.4 °F 100% 29.77 in 6.2 mi North 3.5 mph - N/A Rain Light Rain
5:30 AM 37.4 °F - 35.6 °F 93% 29.71 in 6.2 mi NW 1.2 mph - N/A   Mostly Cloudy
6:00 AM 37.4 °F 34.9 °F 35.6 °F 93% 29.71 in 6.2 mi NW 3.5 mph - N/A   Mostly Cloudy
6:30 AM 37.4 °F 33.8 °F 33.8 °F 87% 29.71 in 6.2 mi NNW 4.6 mph - N/A   Mostly Cloudy
7:00 AM 37.4 °F 31.4 °F 32.0 °F 81% 29.71 in 6.2 mi NNW 8.1 mph - N/A   Mostly Cloudy
7:30 AM 37.4 °F 31.4 °F 32.0 °F 81% 29.68 in 6.2 mi NNW 8.1 mph - N/A   Scattered Clouds
8:00 AM 35.6 °F 30.7 °F 32.0 °F 87% 29.71 in 6.2 mi NNW 5.8 mph - N/A   Partly Cloudy
8:30 AM 35.6 °F 28.6 °F 30.2 °F 81% 29.68 in 6.2 mi NW 9.2 mph - N/A   Partly Cloudy
9:00 AM 37.4 °F 29.8 °F 28.4 °F 70% 29.71 in 6.2 mi NNW 11.5 mph - N/A   Partly Cloudy
9:30 AM 37.4 °F 29.3 °F 30.2 °F 75% 29.71 in 6.2 mi NNW 12.7 mph - N/A   Partly Cloudy
10:00 AM 37.4 °F 28.9 °F 32.0 °F 81% 29.71 in 6.2 mi NNW 13.8 mph - N/A   Partly Cloudy
10:30 AM 37.4 °F 27.8 °F 30.2 °F 75% 29.71 in 6.2 mi NNW 17.3 mph - N/A   Partly Cloudy
11:00 AM 37.4 °F 28.9 °F 30.2 °F 75% 29.71 in 6.2 mi NNW 13.8 mph - N/A   Partly Cloudy
11:30 AM 37.4 °F 28.2 °F 28.4 °F 70% 29.71 in 6.2 mi NNW 16.1 mph - N/A   Partly Cloudy
12:00 PM 39.2 °F 30.8 °F 30.2 °F 70% 29.71 in 6.2 mi NNW 15.0 mph - N/A   Partly Cloudy
12:30 PM 39.2 °F 29.8 °F 30.2 °F 70% 29.71 in 6.2 mi NNW 18.4 mph - N/A   Partly Cloudy
1:00 PM 41.0 °F 32.2 °F 30.2 °F 65% 29.71 in 6.2 mi North 18.4 mph - N/A   Partly Cloudy
1:30 PM 41.0 °F 31.9 °F 28.4 °F 61% 29.71 in 6.2 mi North 19.6 mph - N/A   Partly Cloudy
2:00 PM 41.0 °F 32.8 °F 26.6 °F 57% 29.68 in 6.2 mi North 16.1 mph - N/A   Partly Cloudy
2:30 PM 41.0 °F 33.1 °F 28.4 °F 61% 29.68 in 6.2 mi North 15.0 mph - N/A   Partly Cloudy
3:00 PM 41.0 °F 33.1 °F 26.6 °F 57% 29.71 in 6.2 mi North 15.0 mph - N/A   Partly Cloudy
3:30 PM 41.0 °F 33.1 °F 28.4 °F 61% 29.71 in 6.2 mi NNW 15.0 mph - N/A   Partly Cloudy
4:00 PM 41.0 °F 32.8 °F 28.4 °F 61% 29.71 in 6.2 mi NNW 16.1 mph - N/A   Partly Cloudy
4:30 PM 39.2 °F 31.2 °F 28.4 °F 65% 29.71 in 6.2 mi North 13.8 mph - N/A   Partly Cloudy
5:00 PM 39.2 °F 30.8 °F 28.4 °F 65% 29.71 in 6.2 mi North 15.0 mph - N/A   Partly Cloudy
5:30 PM 37.4 °F 29.8 °F 30.2 °F 75% 29.74 in 6.2 mi North 11.5 mph - N/A   Partly Cloudy
6:00 PM 37.4 °F 30.3 °F 30.2 °F 75% 29.74 in 6.2 mi North 10.4 mph - N/A   Scattered Clouds
6:30 PM 37.4 °F 30.3 °F 30.2 °F 75% 29.74 in 6.2 mi North 10.4 mph - N/A   Scattered Clouds
7:00 PM 37.4 °F 31.4 °F 30.2 °F 75% 29.77 in 6.2 mi North 8.1 mph - N/A   Scattered Clouds
7:30 PM 35.6 °F 28.6 °F 30.2 °F 81% 29.77 in 6.2 mi NNW 9.2 mph - N/A   Scattered Clouds
8:00 PM 35.6 °F 29.9 °F 28.4 °F 75% 29.77 in 6.2 mi NNW 6.9 mph - N/A   Scattered Clouds
8:30 PM 35.6 °F 29.2 °F 28.4 °F 75% 29.80 in 6.2 mi NNW 8.1 mph - N/A   Scattered Clouds
9:00 PM 37.4 °F 30.3 °F 28.4 °F 70% 29.80 in 6.2 mi NNW 10.4 mph - N/A   Scattered Clouds
9:30 PM 37.4 °F 32.1 °F 30.2 °F 75% 29.80 in 6.2 mi North 6.9 mph - N/A   Scattered Clouds
10:00 PM 35.6 °F 29.9 °F 30.2 °F 81% 29.80 in 6.2 mi North 6.9 mph - N/A   Scattered Clouds
10:30 PM 35.6 °F 28.6 °F 30.2 °F 81% 29.83 in 6.2 mi NNW 9.2 mph - N/A   Scattered Clouds
11:00 PM 35.6 °F 28.6 °F 30.2 °F 81% 29.83 in 6.2 mi NNW 9.2 mph - N/A   Scattered Clouds
11:30 PM 35.6 °F 28.6 °F 30.2 °F 81% 29.83 in 6.2 mi NNW 9.2 mph - N/A   Scattered Clouds